Regional Weather Roundup
Issued by NWS

Home | Current Version | Previous Version | Text Only | Print | Product List | Glossary Off
Versions: 1 2 3 4 5 6 7 8 9 10 11 12 13 14 15 16 17 18 19 20 21 22 23 24 25 26 27 28 29 30 31 32 33 34 35 36 37 38 39 40 41 42 43 44 45 46 47 48 49 50

000
ASUS43 KMPX 020310
RWRMN
WEATHER ROUNDUP FOR MINNESOTA
NATIONAL WEATHER SERVICE TWIN CITIES/CHANHASSEN MN
1000 PM CDT WED JUL 01 2015


NOTE: "FAIR" INDICATES FEW OR NO CLOUDS BELOW 12,000 FEET WITH NO
SIGNIFICANT WEATHER AND/OR OBSTRUCTIONS TO VISIBILITY. N/A MEANS
CURRENT SKY AND/OR WEATHER CONDITIONS ARE NOT AVAILABLE.

MNZ060>063-068>070-020400-
   Twin Cities Metro

CITY           SKY/WX    TMP DP  RH WIND       PRES   REMARKS
TWIN CITIES    PTCLDY    67  53  61 SW5       30.02R
ST PAUL        CLEAR     64  54  69 CALM      30.01R
CRYSTAL        CLEAR     64  50  60 NW3       30.00R
BLAINE         CLEAR     66  54  63 SW3       30.02R
LAKEVILLE      CLEAR     57  54  88 CALM      30.02R
EDEN PRAIRIE   CLEAR     63  51  65 CALM      30.01R
SOUTH ST PAUL  CLEAR     65  55  70 CALM      30.01R
LAKE ELMO      FAIR      63  57  82 CALM      30.02R
$$
MNZ001>005-007-008-013>017-022>024-027-028-020400-
   Northwest Minnesota

CITY           SKY/WX    TMP DP  RH WIND       PRES   REMARKS
BEMIDJI        LGT RAIN  68  64  86 SW5       29.98R
HALLOCK        PTCLDY    70  61  73 S3        29.93R
ROSEAU         PTCLDY    66  61  82 CALM      29.95R
WARROAD        PTCLDY    66  63  88 CALM      29.96R
THIEF RVR FALL PTCLDY    68  61  77 S3        29.97R
CROOKSTON      CLEAR     66  61  82 SW5       29.96R
FOSSTON        CLEAR     63  57  82 CALM      29.99R
DETROIT LAKES  PTCLDY    66  55  68 SW3       30.01R
MOORHEAD       CLEAR     66  57  72 CALM      29.98R
PARK RAPIDS    CLOUDY    69  58  67 S5        30.00R
MAHNOMEN       FAIR      66  57  73 SW5       29.99R
$$
MNZ006-009>011-018-025>026-020400-
   North Central Minnesota

CITY           SKY/WX    TMP DP  RH WIND       PRES   REMARKS
BAUDETTE       PTCLDY    64  60  87 CALM      29.95S
FLAG ISLAND    CLOUDY    72  63  73 SW5       29.93S
INTL FALLS     PTCLDY    57  55  93 CALM      29.96S
WASKISH        PTCLDY    63  59  88 CALM      29.96S FOG
BIG FORK       PTCLDY    63  61  94 CALM      29.99R
LONGVILLE      CLOUDY    64  63  94 N3        30.00R
GRAND RAPIDS   PTCLDY    61  55  82 S3        29.99S
CRANE LAKE     CLEAR     55  55 100 S1        29.99S
ORR            PTCLDY    63  55  77 CALM      29.97R
COOK           PTCLDY    63  57  82 CALM      29.99R
WALKER         CLOUDY    67  61  81 CALM      29.99R
$$
MNZ012-019>021-037-020400-
   Northeast Minnesota

CITY           SKY/WX    TMP DP  RH WIND       PRES   REMARKS
DULUTH         PTCLDY    60  51  72 SE3       30.01S
ELY            CLEAR     63  54  72 S3        30.00R
HIBBING        PTCLDY    59  57  93 S3        29.99R
EVELETH        PTCLDY    59  55  88 CALM      30.01R
DULUTH HARBOR  PTCLDY    63  55  77 NE8       30.01S
TWO HARBORS    CLEAR     59  54  82 VRB3      30.00S
SILVER BAY     PTCLDY    54  50  87 CALM      30.01R
GRAND MARAIS     N/A     53  49  86 CALM      30.01R
G MARAIS ARPRT CLEAR     50  43  76 CALM      30.04R
$$
MNZ029>031-032-039>041-046>048-054>057-064-020400-
   West Central Minnesota

CITY           SKY/WX    TMP DP  RH WIND       PRES   REMARKS
FERGUS FALLS   CLEAR     64  55  72 SE5       29.99R
WHEATON        CLEAR     59  55  88 SE6       30.00R
MORRIS         CLEAR     63  57  82 SE7       29.99R HAZE
ALEXANDRIA     CLEAR     64  55  72 SE7       30.02R
ELBOW LAKE     FAIR      62  56  80 SE6       30.00R
WADENA           N/A     63  55  77 CALM      30.00R
GLENWOOD       CLEAR     61  55  82 SE6       30.02R
APPLETON       CLEAR     63  54  72 SE5       29.99R
BENSON         CLEAR     63  54  72 S3        30.00R
ORTONVILLE     CLEAR     63  54  72 SE6       29.99R
MADISON        CLEAR     61  54  77 CALM      30.00R
WILLMAR        FAIR      63  55  77 SE6       30.02R
$$
MNZ033>034-036-042>043-049>051-058-059-020400-
   Central Minnesota

CITY           SKY/WX    TMP DP  RH WIND       PRES   REMARKS
ST CLOUD       CLEAR     60  54  80 CALM      30.01R
SAUK CENTRE    FAIR      61  56  85 SE3       30.02R
PAYNESVILLE    CLEAR     60  52  75 E3        30.02S
AITKIN         PTCLDY    61  55  82 CALM      29.99R
PINE RIVER     CLOUDY    68  57  68 S3        30.03R
BRAINERD       CLEAR     62  56  80 S3        30.01R
STAPLES        CLEAR     63  55  77 SW3       30.01R
LONG PRAIRIE   FAIR      59  55  88 SE6       30.02R
LITTLE FALLS   CLEAR     63  54  72 CALM      30.01S
LITCHFIELD     CLEAR     61  55  82 CALM      30.02S
BUFFALO        CLEAR     64  52  65 CALM      30.03R
MAPLE LAKE     CLEAR     62  53  71 CALM      30.02S
$$
MNZ037-044-045-052-053-020400-
   East Central Minnesota

CITY           SKY/WX    TMP DP  RH WIND       PRES   REMARKS
PRINCETON      CLEAR     63  55  77 CALM      30.02R
MORA           CLEAR     61  55  82 CALM      30.03R
CAMBRIDGE      CLEAR     64  54  68 CALM      30.00R
RUSH CITY      PTCLDY    60  56  89 CALM      30.02R
MOOSE LAKE     PTCLDY    59  55  88 CALM      29.99S
HINCKLEY       FAIR      61  59  94 CALM      30.01R
CLOQUET        PTCLDY    61  54  77 SE3       30.01S
MCGREGOR       PTCLDY    64  55  72 CALM      30.01R
$$
MNZ071>073-080-081-089-090-097-098-020400-
   Southwest Minnesota

CITY           SKY/WX    TMP DP  RH WIND       PRES   REMARKS
MONTEVIDEO     CLEAR     59  55  88 S3        30.01R
GRANITE FALLS  PTCLDY    62  54  75 CALM      30.01R
CANBY          CLEAR     61  54  78 SE3       30.00R
MARSHALL       CLEAR     64  50  59 SE9       29.98R
REDWOOD FALLS  CLEAR     62  54  74 E5        29.99S
OLIVIA         CLEAR     61  50  67 E5        30.00S
PIPESTONE      PTCLDY    64  55  72 SE6       29.99R
WINDOM         PTCLDY    61  55  82 E8        30.00S
WORTHINGTON    CLOUDY    63  52  67 E7        30.00R
JACKSON        MOCLDY    61  55  82 E6        30.01R
TRACY          PTCLDY    63  57  81 SE6       30.00R
SLAYTON        MOCLDY    62  56  81 CALM      30.01R
$$
MNZ065>067-074>077-082>085-091>093-020400-
   South Central Minnesota

CITY           SKY/WX    TMP DP  RH WIND       PRES   REMARKS
MANKATO        CLEAR     61  48  63 E7        30.01S
NEW ULM        CLEAR     63  52  67 E3        30.00S
ST JAMES       CLEAR     59  54  82 E5        30.02R
FAIRMONT       PTCLDY    57  52  82 E7        30.00S
GLENCOE        CLEAR     59  55  85 CALM      30.01S
FARIBAULT      CLEAR     54  52  94 CALM      30.03R
OWATONNA       CLEAR     55  52  88 CALM      30.02S
WASECA         CLEAR     55  50  82 CALM      30.03S
ALBERT LEA     CLEAR     57  52  82 CALM      30.01S
$$
MNZ078>079-086>088-094>096-020400-
   Southeast Minnesota

CITY           SKY/WX    TMP DP  RH WIND       PRES   REMARKS
ROCHESTER      CLEAR     58  51  78 N3        30.03S
RED WING       CLEAR     59  55  88 CALM      30.01R
STANTON        CLEAR     59  55  88 CALM      30.01R
DODGE CENTER   PTCLDY    57  52  82 NE3       30.02S
WINONA         CLEAR     59  55  88 CALM      30.02R
AUSTIN         CLEAR     55  52  88 CALM      30.01S
PRESTON        CLEAR     55  52  90 N3        30.03R
$$
ABBREVIATIONS USED IN REMARKS
   TC - TEMPERATURES IN CELSIUS
  WCI - WIND CHILL INDEX
   HX - HEAT INDEX
  VSB - VISIBILITY
$$



USA.gov is the U.S. government's official web portal to all federal, state and local government web resources and services.